| time (UTC) | temp F | wind direction | speed MPH | gust MPH | rain 1hr in | rain 24hr in | rain mn in | humidity % | barometer mb |
| 20260507213056 | 53 | 331 | 0.0 | 3.0 | 0.00 | 0.00 | 0.00 | 75 | 1017.0 |
| 20260507212544 | 53 | 0 | 0.0 | 3.0 | 0.00 | 0.00 | 0.00 | 75 | 1016.8 |
| 20260507212041 | 53 | 0 | 0.0 | 2.0 | 0.00 | 0.00 | 0.00 | 74 | 1016.7 |
| 20260507211557 | 53 | 0 | 0.0 | 2.0 | 0.00 | 0.00 | 0.00 | 74 | 1016.7 |
| 20260507211040 | 54 | 0 | 0.0 | 2.0 | 0.00 | 0.00 | 0.00 | 73 | 1016.7 |
| 20260507210544 | 54 | 0 | 0.0 | 1.0 | 0.00 | 0.00 | 0.00 | 72 | 1016.7 |
| 20260507210107 | 54 | 0 | 0.0 | 2.0 | 0.00 | 0.00 | 0.00 | 72 | 1016.6 |
| 20260507205541 | 55 | 0 | 0.0 | 2.0 | 0.00 | 0.00 | 0.00 | 72 | 1016.5 |
| 20260507205038 | 55 | 0 | 0.0 | 2.0 | 0.00 | 0.00 | 0.00 | 71 | 1016.4 |
| 20260507204548 | 55 | 0 | 0.0 | 1.0 | 0.00 | 0.00 | 0.00 | 71 | 1016.4 |
| 20260507204038 | 55 | 0 | 0.0 | 1.0 | 0.00 | 0.00 | 0.00 | 71 | 1016.4 |
| 20260507203538 | 55 | 0 | 0.0 | 1.0 | 0.00 | 0.00 | 0.00 | 70 | 1016.4 |
| 20260507203053 | 55 | 0 | 0.0 | 3.0 | 0.00 | 0.00 | 0.00 | 70 | 1016.4 |
| 20260507202538 | 55 | 0 | 0.0 | 3.0 | 0.00 | 0.00 | 0.00 | 70 | 1016.4 |
| 20260507202038 | 56 | 0 | 1.0 | 3.0 | 0.00 | 0.00 | 0.00 | 69 | 1016.4 |
| 20260507201552 | 56 | 0 | 0.0 | 2.0 | 0.00 | 0.00 | 0.00 | 68 | 1016.3 |
| 20260507201039 | 56 | 0 | 0.0 | 2.0 | 0.00 | 0.00 | 0.00 | 68 | 1016.3 |
| 20260507200538 | 56 | 0 | 0.0 | 1.0 | 0.00 | 0.00 | 0.00 | 67 | 1016.1 |
| 20260507200055 | 57 | 0 | 0.0 | 1.0 | 0.00 | 0.00 | 0.00 | 67 | 1016.0 |
| 20260507195543 | 57 | 0 | 0.0 | 2.0 | 0.00 | 0.00 | 0.00 | 66 | 1016.1 |
| 20260507195036 | 57 | 0 | 0.0 | 3.0 | 0.00 | 0.00 | 0.00 | 66 | 1016.0 |
| 20260507194556 | 57 | 0 | 0.0 | 4.0 | 0.00 | 0.00 | 0.00 | 66 | 1015.9 |
| 20260507194039 | 58 | 0 | 1.0 | 4.0 | 0.00 | 0.00 | 0.00 | 65 | 1015.8 |
| 20260507193537 | 58 | 0 | 1.0 | 4.0 | 0.00 | 0.00 | 0.00 | 65 | 1015.8 |
| 20260507193052 | 58 | 0 | 0.0 | 3.0 | 0.00 | 0.00 | 0.00 | 65 | 1015.6 |
| 20260507192538 | 58 | 317 | 1.0 | 4.0 | 0.00 | 0.00 | 0.00 | 65 | 1015.4 |
| 20260507192036 | 58 | 0 | 1.0 | 4.0 | 0.00 | 0.00 | 0.00 | 64 | 1015.2 |
| 20260507191553 | 58 | 331 | 0.0 | 8.0 | 0.00 | 0.00 | 0.00 | 65 | 1015.2 |
| 20260507191036 | 59 | 0 | 1.0 | 8.0 | 0.00 | 0.00 | 0.00 | 64 | 1015.2 |
| 20260507190536 | 59 | 324 | 2.0 | 8.0 | 0.00 | 0.00 | 0.00 | 64 | 1015.1 |
| 20260507190057 | 59 | 0 | 1.0 | 8.0 | 0.00 | 0.00 | 0.00 | 64 | 1015.1 |
| 20260507185536 | 59 | 0 | 1.0 | 5.0 | 0.00 | 0.00 | 0.00 | 64 | 1015.0 |
| 20260507185038 | 59 | 265 | 0.0 | 5.0 | 0.00 | 0.00 | 0.00 | 64 | 1014.8 |
| 20260507184551 | 59 | 0 | 0.0 | 5.0 | 0.00 | 0.00 | 0.00 | 63 | 1014.7 |
| 20260507184039 | 60 | 285 | 0.0 | 5.0 | 0.00 | 0.00 | 0.00 | 63 | 1014.7 |
| 20260507183538 | 60 | 313 | 2.0 | 5.0 | 0.00 | 0.00 | 0.00 | 62 | 1014.7 |
| 20260507183109 | 60 | 291 | 0.0 | 4.0 | 0.00 | 0.00 | 0.00 | 62 | 1014.6 |
| 20260507182539 | 60 | 250 | 0.0 | 4.0 | 0.00 | 0.00 | 0.00 | 62 | 1014.5 |
| 20260507182039 | 60 | 267 | 1.0 | 4.0 | 0.00 | 0.00 | 0.00 | 61 | 1014.4 |
| 20260507181553 | 61 | 174 | 1.0 | 5.0 | 0.00 | 0.00 | 0.00 | 60 | 1014.3 |
| 20260507181035 | 61 | 0 | 0.0 | 12.0 | 0.00 | 0.00 | 0.00 | 60 | 1014.3 |
| 20260507180540 | 61 | 286 | 2.0 | 12.0 | 0.00 | 0.00 | 0.00 | 59 | 1014.2 |
| 20260507180054 | 61 | 327 | 1.0 | 6.0 | 0.00 | 0.00 | 0.00 | 59 | 1014.1 |
| 20260507175538 | 61 | 225 | 1.0 | 6.0 | 0.00 | 0.00 | 0.00 | 59 | 1014.1 |
| 20260507175037 | 62 | 288 | 0.0 | 6.0 | 0.00 | 0.00 | 0.00 | 59 | 1014.0 |
| 20260507174601 | 62 | 218 | 2.0 | 9.0 | 0.00 | 0.00 | 0.00 | 60 | 1013.9 |
| 20260507174042 | 62 | 245 | 2.0 | 9.0 | 0.00 | 0.00 | 0.00 | 59 | 1013.7 |
| 20260507173537 | 62 | 251 | 1.0 | 8.0 | 0.00 | 0.00 | 0.00 | 59 | 1013.7 |
| 20260507173053 | 62 | 0 | 1.0 | 8.0 | 0.00 | 0.00 | 0.00 | 59 | 1013.6 |
| 20260507172540 | 62 | 315 | 2.0 | 8.0 | 0.00 | 0.00 | 0.00 | 58 | 1013.6 |
| 20260507172039 | 62 | 0 | 1.0 | 7.0 | 0.00 | 0.00 | 0.00 | 58 | 1013.6 |
| 20260507171552 | 62 | 200 | 2.0 | 7.0 | 0.00 | 0.00 | 0.00 | 58 | 1013.5 |
| 20260507171041 | 62 | 237 | 1.0 | 6.0 | 0.00 | 0.00 | 0.00 | 58 | 1013.6 |
| 20260507170540 | 62 | 256 | 2.0 | 6.0 | 0.00 | 0.00 | 0.00 | 57 | 1013.7 |
| 20260507170056 | 62 | 280 | 1.0 | 4.0 | 0.00 | 0.00 | 0.00 | 60 | 1013.6 |
| 20260507165540 | 62 | 0 | 1.0 | 6.0 | 0.00 | 0.00 | 0.00 | 60 | 1013.6 |
| 20260507165040 | 63 | 299 | 0.0 | 9.0 | 0.00 | 0.00 | 0.00 | 60 | 1013.6 |
| 20260507164627 | 63 | 344 | 4.0 | 9.0 | 0.00 | 0.00 | 0.00 | 59 | 1013.7 |
| 20260507164041 | 63 | 270 | 1.0 | 5.0 | 0.00 | 0.00 | 0.00 | 59 | 1013.7 |
| 20260507163544 | 63 | 0 | 0.0 | 5.0 | 0.00 | 0.00 | 0.00 | 60 | 1013.7 |
| 20260507163056 | 63 | 18 | 2.0 | 8.0 | 0.00 | 0.00 | 0.00 | 59 | 1013.7 |
| 20260507162540 | 64 | 275 | 1.0 | 8.0 | 0.00 | 0.00 | 0.00 | 58 | 1013.6 |
| 20260507162040 | 64 | 229 | 2.0 | 13.0 | 0.00 | 0.00 | 0.00 | 58 | 1013.6 |
| 20260507161558 | 64 | 0 | 1.0 | 13.0 | 0.00 | 0.00 | 0.00 | 57 | 1013.5 |
| 20260507161044 | 64 | 0 | 1.0 | 11.0 | 0.00 | 0.00 | 0.00 | 56 | 1013.5 |
| 20260507160541 | 64 | 206 | 4.0 | 11.0 | 0.00 | 0.00 | 0.00 | 54 | 1013.5 |
| 20260507160049 | 64 | 211 | 2.0 | 7.0 | 0.00 | 0.00 | 0.00 | 56 | 1013.5 |
| 20260507155540 | 64 | 261 | 2.0 | 8.0 | 0.00 | 0.00 | 0.00 | 57 | 1013.5 |
| 20260507155040 | 64 | 225 | 3.0 | 8.0 | 0.00 | 0.00 | 0.00 | 57 | 1013.5 |
| 20260507154553 | 64 | 219 | 1.0 | 8.0 | 0.00 | 0.00 | 0.00 | 58 | 1013.5 |
| 20260507154041 | 64 | 195 | 1.0 | 6.0 | 0.00 | 0.00 | 0.00 | 57 | 1013.5 |
| 20260507153544 | 63 | 331 | 1.0 | 8.0 | 0.00 | 0.00 | 0.00 | 58 | 1013.4 |
| 20260507153045 | 63 | 320 | 1.0 | 8.0 | 0.00 | 0.00 | 0.00 | 58 | 1013.5 |
| 20260507152543 | 63 | 190 | 2.0 | 8.0 | 0.00 | 0.00 | 0.00 | 58 | 1013.5 |
| 20260507152044 | 63 | 0 | 3.0 | 8.0 | 0.00 | 0.00 | 0.00 | 57 | 1013.4 |
| 20260507151550 | 63 | 223 | 2.0 | 8.0 | 0.00 | 0.00 | 0.00 | 57 | 1013.4 |
| 20260507151044 | 63 | 331 | 1.0 | 8.0 | 0.00 | 0.00 | 0.00 | 57 | 1013.4 |
| 20260507150540 | 63 | 270 | 2.0 | 8.0 | 0.00 | 0.00 | 0.00 | 57 | 1013.3 |
| 20260507150051 | 63 | 218 | 2.0 | 10.0 | 0.00 | 0.00 | 0.00 | 57 | 1013.3 |
| 20260507145540 | 63 | 344 | 2.0 | 10.0 | 0.00 | 0.00 | 0.00 | 56 | 1013.3 |
| 20260507145041 | 64 | 267 | 2.0 | 8.0 | 0.00 | 0.00 | 0.00 | 57 | 1013.2 |
| 20260507144550 | 64 | 224 | 2.0 | 8.0 | 0.00 | 0.00 | 0.00 | 56 | 1013.2 |
| 20260507144041 | 64 | 333 | 2.0 | 8.0 | 0.00 | 0.00 | 0.00 | 56 | 1013.2 |
| 20260507143541 | 64 | 286 | 3.0 | 9.0 | 0.00 | 0.00 | 0.00 | 55 | 1013.2 |
| 20260507143114 | 64 | 283 | 3.0 | 9.0 | 0.00 | 0.00 | 0.00 | 54 | 1013.3 |
| 20260507142540 | 64 | 290 | 1.0 | 11.0 | 0.00 | 0.00 | 0.00 | 55 | 1013.3 |
| 20260507142040 | 64 | 0 | 2.0 | 11.0 | 0.00 | 0.00 | 0.00 | 55 | 1013.3 |
| 20260507141558 | 64 | 235 | 2.0 | 8.0 | 0.00 | 0.00 | 0.00 | 55 | 1013.3 |
| 20260507141040 | 64 | 249 | 1.0 | 9.0 | 0.00 | 0.00 | 0.00 | 55 | 1013.3 |
| 20260507140540 | 64 | 294 | 3.0 | 9.0 | 0.00 | 0.00 | 0.00 | 54 | 1013.3 |
| 20260507140048 | 65 | 271 | 1.0 | 8.0 | 0.00 | 0.00 | 0.00 | 54 | 1013.3 |
| 20260507135540 | 65 | 261 | 2.0 | 8.0 | 0.00 | 0.00 | 0.00 | 54 | 1013.2 |
| 20260507135040 | 65 | 263 | 2.0 | 8.0 | 0.00 | 0.00 | 0.00 | 53 | 1013.2 |
| 20260507134552 | 65 | 297 | 1.0 | 8.0 | 0.00 | 0.00 | 0.00 | 53 | 1013.2 |
| 20260507134040 | 66 | 164 | 1.0 | 10.0 | 0.00 | 0.00 | 0.00 | 53 | 1013.1 |
| 20260507133540 | 66 | 352 | 3.0 | 13.0 | 0.00 | 0.00 | 0.00 | 52 | 1013.1 |
| 20260507133053 | 66 | 226 | 5.0 | 13.0 | 0.00 | 0.00 | 0.00 | 51 | 1013.0 |
| 20260507132540 | 67 | 200 | 4.0 | 11.0 | 0.00 | 0.00 | 0.00 | 50 | 1013.1 |
| 20260507132040 | 67 | 258 | 2.0 | 12.0 | 0.00 | 0.00 | 0.00 | 52 | 1013.1 |
| 20260507131600 | 66 | 305 | 2.0 | 12.0 | 0.00 | 0.00 | 0.00 | 51 | 1013.0 |
| 20260507131040 | 67 | 5 | 4.0 | 12.0 | 0.00 | 0.00 | 0.00 | 49 | 1013.2 |
| 20260507130543 | 68 | 189 | 2.0 | 9.0 | 0.00 | 0.00 | 0.00 | 51 | 1013.2 |
| 20260507130056 | 67 | 299 | 3.0 | 9.0 | 0.00 | 0.00 | 0.00 | 51 | 1013.2 |
| 20260507125541 | 67 | 245 | 1.0 | 10.0 | 0.00 | 0.00 | 0.00 | 50 | 1013.2 |
| 20260507125041 | 67 | 319 | 3.0 | 11.0 | 0.00 | 0.00 | 0.00 | 52 | 1013.0 |
| 20260507124557 | 67 | 198 | 4.0 | 15.0 | 0.00 | 0.00 | 0.00 | 52 | 1013.0 |
| 20260507124040 | 67 | 264 | 3.0 | 15.0 | 0.00 | 0.00 | 0.00 | 51 | 1013.1 |
| 20260507123540 | 67 | 327 | 6.0 | 15.0 | 0.00 | 0.00 | 0.00 | 50 | 1013.1 |
| 20260507123047 | 67 | 202 | 4.0 | 11.0 | 0.00 | 0.00 | 0.00 | 50 | 1013.0 |
| 20260507122539 | 66 | 195 | 4.0 | 11.0 | 0.00 | 0.00 | 0.00 | 52 | 1012.9 |
| 20260507122040 | 66 | 252 | 2.0 | 8.0 | 0.00 | 0.00 | 0.00 | 54 | 1013.0 |
| 20260507121553 | 65 | 352 | 3.0 | 10.0 | 0.00 | 0.00 | 0.00 | 55 | 1013.1 |
| 20260507121041 | 65 | 288 | 3.0 | 10.0 | 0.00 | 0.00 | 0.00 | 54 | 1013.0 |
| 20260507120539 | 65 | 231 | 2.0 | 11.0 | 0.00 | 0.00 | 0.00 | 54 | 1013.1 |
| 20260507120054 | 65 | 291 | 2.0 | 11.0 | 0.00 | 0.00 | 0.00 | 53 | 1013.0 |
| 20260507115540 | 64 | 195 | 2.0 | 11.0 | 0.00 | 0.00 | 0.00 | 55 | 1013.1 |
| 20260507115043 | 64 | 273 | 3.0 | 13.0 | 0.00 | 0.00 | 0.00 | 55 | 1013.2 |
| 20260507114605 | 64 | 240 | 5.0 | 13.0 | 0.00 | 0.00 | 0.00 | 54 | 1013.3 |
| 20260507114040 | 64 | 260 | 2.0 | 10.0 | 0.00 | 0.00 | 0.00 | 55 | 1013.3 |
| 20260507113540 | 64 | 232 | 2.0 | 10.0 | 0.00 | 0.00 | 0.00 | 56 | 1013.3 |
| 20260507113105 | 65 | 284 | 4.0 | 10.0 | 0.00 | 0.00 | 0.00 | 54 | 1013.4 |
| 20260507112541 | 64 | 119 | 3.0 | 11.0 | 0.00 | 0.00 | 0.00 | 56 | 1013.4 |
| 20260507112042 | 64 | 288 | 2.0 | 11.0 | 0.00 | 0.00 | 0.00 | 56 | 1013.3 |
| 20260507111553 | 64 | 257 | 2.0 | 8.0 | 0.00 | 0.00 | 0.00 | 54 | 1013.5 |
| 20260507111042 | 64 | 5 | 1.0 | 10.0 | 0.00 | 0.00 | 0.00 | 55 | 1013.4 |
| 20260507110540 | 65 | 250 | 2.0 | 10.0 | 0.00 | 0.00 | 0.00 | 54 | 1013.3 |
| 20260507110049 | 65 | 214 | 3.0 | 13.0 | 0.00 | 0.00 | 0.00 | 53 | 1013.4 |
| 20260507105540 | 65 | 252 | 4.0 | 13.0 | 0.00 | 0.00 | 0.00 | 54 | 1013.5 |
| 20260507105040 | 65 | 180 | 4.0 | 13.0 | 0.00 | 0.00 | 0.00 | 53 | 1013.4 |
| 20260507104548 | 66 | 254 | 3.0 | 12.0 | 0.00 | 0.00 | 0.00 | 54 | 1013.4 |
| 20260507104042 | 66 | 209 | 4.0 | 12.0 | 0.00 | 0.00 | 0.00 | 53 | 1013.5 |
| 20260507103540 | 65 | 154 | 2.0 | 10.0 | 0.00 | 0.00 | 0.00 | 54 | 1013.5 |
| 20260507103051 | 65 | 192 | 4.0 | 15.0 | 0.00 | 0.00 | 0.00 | 54 | 1013.5 |
| 20260507102543 | 64 | 275 | 3.0 | 15.0 | 0.00 | 0.00 | 0.00 | 57 | 1013.5 |
| 20260507102040 | 64 | 259 | 4.0 | 10.0 | 0.00 | 0.00 | 0.00 | 55 | 1013.7 |
| 20260507101548 | 63 | 246 | 3.0 | 10.0 | 0.00 | 0.00 | 0.00 | 57 | 1013.7 |
| 20260507101039 | 63 | 221 | 3.0 | 10.0 | 0.00 | 0.00 | 0.00 | 59 | 1013.7 |
| 20260507100540 | 63 | 284 | 2.0 | 12.0 | 0.00 | 0.00 | 0.00 | 57 | 1013.7 |
| 20260507100056 | 63 | 323 | 3.0 | 15.0 | 0.00 | 0.00 | 0.00 | 57 | 1013.7 |
| 20260507095541 | 63 | 289 | 4.0 | 15.0 | 0.00 | 0.00 | 0.00 | 56 | 1013.7 |
| 20260507095036 | 63 | 179 | 4.0 | 13.0 | 0.00 | 0.00 | 0.00 | 55 | 1013.6 |
| 20260507094549 | 63 | 207 | 4.0 | 16.0 | 0.00 | 0.00 | 0.00 | 57 | 1013.6 |
| 20260507094042 | 63 | 234 | 5.0 | 16.0 | 0.00 | 0.00 | 0.00 | 57 | 1013.7 |
| 20260507093539 | 63 | 198 | 4.0 | 15.0 | 0.00 | 0.00 | 0.00 | 58 | 1013.6 |
| 20260507093052 | 62 | 265 | 6.0 | 15.0 | 0.00 | 0.00 | 0.00 | 57 | 1013.7 |
| 20260507092541 | 62 | 208 | 4.0 | 9.0 | 0.00 | 0.00 | 0.00 | 59 | 1013.6 |
| 20260507092042 | 62 | 304 | 3.0 | 14.0 | 0.00 | 0.00 | 0.00 | 59 | 1013.6 |
| 20260507091549 | 62 | 202 | 4.0 | 14.0 | 0.00 | 0.00 | 0.00 | 60 | 1013.5 |
| 20260507091040 | 61 | 259 | 4.0 | 14.0 | 0.00 | 0.00 | 0.00 | 60 | 1013.6 |
| 20260507090541 | 61 | 274 | 4.0 | 14.0 | 0.00 | 0.00 | 0.00 | 59 | 1013.5 |
| 20260507090050 | 61 | 217 | 3.0 | 11.0 | 0.00 | 0.00 | 0.00 | 61 | 1013.5 |
| 20260507085540 | 61 | 277 | 3.0 | 14.0 | 0.00 | 0.00 | 0.00 | 61 | 1013.5 |
| 20260507085039 | 61 | 290 | 3.0 | 14.0 | 0.00 | 0.00 | 0.00 | 61 | 1013.4 |
| 20260507084600 | 62 | 343 | 4.0 | 11.0 | 0.00 | 0.00 | 0.00 | 60 | 1013.4 |
| 20260507084039 | 61 | 286 | 2.0 | 12.0 | 0.00 | 0.00 | 0.00 | 62 | 1013.3 |
| 20260507083542 | 61 | 328 | 3.0 | 12.0 | 0.00 | 0.00 | 0.00 | 62 | 1013.3 |
| 20260507083053 | 61 | 284 | 4.0 | 16.0 | 0.00 | 0.00 | 0.00 | 62 | 1013.3 |
| 20260507082539 | 61 | 198 | 4.0 | 16.0 | 0.00 | 0.00 | 0.00 | 60 | 1013.3 |
| 20260507082039 | 61 | 321 | 3.0 | 10.0 | 0.00 | 0.00 | 0.00 | 63 | 1013.2 |
| 20260507081558 | 61 | 213 | 2.0 | 12.0 | 0.00 | 0.00 | 0.00 | 64 | 1013.1 |
| 20260507081039 | 61 | 213 | 3.0 | 12.0 | 0.00 | 0.00 | 0.00 | 62 | 1013.1 |
| 20260507080540 | 61 | 246 | 2.0 | 11.0 | 0.00 | 0.00 | 0.00 | 64 | 1013.1 |
| 20260507080052 | 60 | 279 | 2.0 | 10.0 | 0.00 | 0.00 | 0.00 | 65 | 1013.1 |
| 20260507075540 | 60 | 344 | 2.0 | 10.0 | 0.00 | 0.00 | 0.00 | 66 | 1013.0 |
| 20260507075042 | 59 | 313 | 2.0 | 12.0 | 0.00 | 0.00 | 0.00 | 64 | 1013.0 |
| 20260507074556 | 59 | 350 | 3.0 | 12.0 | 0.00 | 0.00 | 0.00 | 65 | 1013.0 |
| 20260507074043 | 60 | 188 | 4.0 | 12.0 | 0.00 | 0.00 | 0.00 | 64 | 1013.1 |
| 20260507073540 | 60 | 5 | 3.0 | 8.0 | 0.00 | 0.00 | 0.00 | 65 | 1012.9 |
| 20260507073054 | 60 | 0 | 2.0 | 7.0 | 0.00 | 0.00 | 0.00 | 66 | 1012.9 |
| 20260507072540 | 59 | 243 | 3.0 | 6.0 | 0.00 | 0.00 | 0.00 | 66 | 1012.9 |
| 20260507072042 | 59 | 238 | 2.0 | 9.0 | 0.00 | 0.00 | 0.00 | 66 | 1013.0 |
| 20260507071550 | 59 | 199 | 3.0 | 10.0 | 0.00 | 0.00 | 0.00 | 66 | 1013.0 |
| 20260507071040 | 59 | 0 | 1.0 | 10.0 | 0.00 | 0.00 | 0.00 | 68 | 1013.0 |
| 20260507070540 | 59 | 173 | 2.0 | 10.0 | 0.00 | 0.00 | 0.00 | 68 | 1013.0 |
| 20260507070051 | 58 | 317 | 3.0 | 9.0 | 0.00 | 0.00 | 0.00 | 69 | 1012.9 |
| 20260507065540 | 58 | 274 | 2.0 | 8.0 | 0.00 | 0.00 | 0.00 | 70 | 1013.0 |
| 20260507065039 | 58 | 273 | 2.0 | 8.0 | 0.00 | 0.00 | 0.00 | 69 | 1012.9 |
| 20260507064555 | 59 | 290 | 2.0 | 7.0 | 0.00 | 0.00 | 0.00 | 69 | 1012.9 |
| 20260507064043 | 59 | 223 | 2.0 | 7.0 | 0.00 | 0.00 | 0.00 | 69 | 1013.0 |
| 20260507063540 | 58 | 323 | 2.0 | 7.0 | 0.00 | 0.00 | 0.00 | 69 | 1013.0 |
| 20260507063056 | 58 | 198 | 2.0 | 6.0 | 0.00 | 0.00 | 0.00 | 69 | 1013.1 |
| 20260507062540 | 58 | 293 | 1.0 | 6.0 | 0.00 | 0.00 | 0.00 | 71 | 1013.1 |
| 20260507062040 | 58 | 277 | 1.0 | 7.0 | 0.00 | 0.00 | 0.00 | 69 | 1013.0 |
| 20260507061552 | 57 | 291 | 1.0 | 7.0 | 0.00 | 0.00 | 0.00 | 72 | 1013.0 |
| 20260507061040 | 56 | 226 | 1.0 | 3.0 | 0.00 | 0.00 | 0.00 | 74 | 1013.0 |
| 20260507060538 | 56 | 283 | 1.0 | 4.0 | 0.00 | 0.00 | 0.00 | 73 | 1013.0 |
| 20260507060059 | 56 | 317 | 1.0 | 4.0 | 0.00 | 0.00 | 0.00 | 75 | 1013.0 |
| 20260507055540 | 55 | 279 | 1.0 | 4.0 | 0.00 | 0.00 | 0.00 | 76 | 1012.9 |
| 20260507055039 | 55 | 325 | 1.0 | 4.0 | 0.00 | 0.00 | 0.00 | 77 | 1012.9 |
| 20260507054554 | 54 | 315 | 1.0 | 3.0 | 0.00 | 0.00 | 0.00 | 77 | 1012.9 |
| 20260507054042 | 54 | 274 | 0.0 | 3.0 | 0.00 | 0.00 | 0.00 | 77 | 1012.9 |
| 20260507053542 | 54 | 0 | 0.0 | 3.0 | 0.00 | 0.00 | 0.00 | 78 | 1012.9 |
| 20260507053052 | 54 | 300 | 0.0 | 3.0 | 0.00 | 0.00 | 0.00 | 78 | 1012.8 |
| 20260507052544 | 54 | 311 | 0.0 | 4.0 | 0.00 | 0.00 | 0.00 | 80 | 1012.8 |
| 20260507052040 | 53 | 322 | 0.0 | 5.0 | 0.00 | 0.00 | 0.00 | 80 | 1012.7 |
| 20260507051553 | 53 | 324 | 0.0 | 5.0 | 0.00 | 0.00 | 0.00 | 80 | 1012.5 |
| 20260507051041 | 53 | 0 | 1.0 | 3.0 | 0.00 | 0.00 | 0.00 | 80 | 1012.5 |
| 20260507050540 | 53 | 0 | 0.0 | 2.0 | 0.00 | 0.00 | 0.00 | 81 | 1012.5 |
| 20260507050053 | 53 | 286 | 0.0 | 2.0 | 0.00 | 0.00 | 0.00 | 81 | 1012.4 |
| 20260507045542 | 52 | 0 | 0.0 | 2.0 | 0.00 | 0.00 | 0.00 | 81 | 1012.4 |
| 20260507045039 | 52 | 0 | 0.0 | 2.0 | 0.00 | 0.00 | 0.00 | 81 | 1012.3 |
| 20260507044605 | 52 | 273 | 0.0 | 2.0 | 0.00 | 0.00 | 0.00 | 81 | 1012.2 |
| 20260507044040 | 52 | 0 | 0.0 | 2.0 | 0.00 | 0.00 | 0.00 | 81 | 1012.2 |
| 20260507043540 | 52 | 313 | 0.0 | 2.0 | 0.00 | 0.00 | 0.00 | 81 | 1012.1 |
| 20260507043102 | 52 | 309 | 0.0 | 2.0 | 0.00 | 0.00 | 0.00 | 81 | 1012.1 |
| 20260507042541 | 52 | 0 | 0.0 | 2.0 | 0.00 | 0.00 | 0.00 | 81 | 1012.1 |
| 20260507042044 | 52 | 0 | 0.0 | 2.0 | 0.00 | 0.00 | 0.00 | 81 | 1012.0 |
| 20260507041557 | 52 | 0 | 0.0 | 3.0 | 0.00 | 0.00 | 0.00 | 81 | 1011.9 |
| 20260507041041 | 52 | 0 | 0.0 | 3.0 | 0.00 | 0.00 | 0.00 | 81 | 1011.8 |
| 20260507040540 | 52 | 304 | 0.0 | 3.0 | 0.00 | 0.00 | 0.00 | 80 | 1011.8 |
| 20260507040054 | 52 | 0 | 0.0 | 1.0 | 0.00 | 0.00 | 0.00 | 80 | 1011.8 |
| 20260507035539 | 52 | 0 | 0.0 | 1.0 | 0.00 | 0.00 | 0.00 | 80 | 1011.8 |
| 20260507035039 | 52 | 0 | 0.0 | 1.0 | 0.00 | 0.00 | 0.00 | 79 | 1011.7 |
| 20260507034554 | 52 | 0 | 0.0 | 2.0 | 0.00 | 0.00 | 0.00 | 79 | 1011.6 |
| 20260507034040 | 52 | 0 | 0.0 | 2.0 | 0.00 | 0.00 | 0.00 | 79 | 1011.5 |
| 20260507033540 | 52 | 0 | 0.0 | 2.0 | 0.00 | 0.00 | 0.00 | 79 | 1011.6 |
| 20260507033052 | 53 | 0 | 0.0 | 2.0 | 0.00 | 0.00 | 0.00 | 79 | 1011.5 |
| 20260507032540 | 53 | 0 | 0.0 | 2.0 | 0.00 | 0.00 | 0.00 | 79 | 1011.5 |
| 20260507032039 | 53 | 0 | 0.0 | 2.0 | 0.00 | 0.00 | 0.00 | 79 | 1011.5 |
| 20260507031554 | 53 | 0 | 0.0 | 3.0 | 0.00 | 0.00 | 0.00 | 79 | 1011.5 |
| 20260507031039 | 53 | 0 | 0.0 | 3.0 | 0.00 | 0.00 | 0.00 | 79 | 1011.4 |
| 20260507030539 | 53 | 269 | 0.0 | 3.0 | 0.00 | 0.00 | 0.00 | 79 | 1011.3 |
| 20260507030049 | 53 | 302 | 0.0 | 3.0 | 0.00 | 0.00 | 0.00 | 79 | 1011.3 |
| 20260507025540 | 53 | 211 | 0.0 | 4.0 | 0.00 | 0.00 | 0.00 | 79 | 1011.2 |
| 20260507025040 | 53 | 0 | 0.0 | 4.0 | 0.00 | 0.00 | 0.00 | 80 | 1011.2 |
| 20260507024553 | 53 | 318 | 0.0 | 3.0 | 0.00 | 0.00 | 0.00 | 80 | 1011.2 |
| 20260507024040 | 53 | 242 | 0.0 | 3.0 | 0.00 | 0.00 | 0.00 | 80 | 1011.2 |
| 20260507023540 | 53 | 0 | 0.0 | 6.0 | 0.00 | 0.00 | 0.00 | 80 | 1011.2 |
| 20260507023103 | 53 | 215 | 0.0 | 6.0 | 0.00 | 0.00 | 0.00 | 80 | 1011.2 |
| 20260507022540 | 53 | 0 | 0.0 | 6.0 | 0.00 | 0.00 | 0.00 | 80 | 1011.1 |
| 20260507022040 | 53 | 0 | 2.0 | 6.0 | 0.00 | 0.00 | 0.00 | 80 | 1011.1 |
| 20260507021550 | 53 | 0 | 0.0 | 6.0 | 0.00 | 0.00 | 0.00 | 80 | 1011.1 |
| 20260507021040 | 53 | 0 | 0.0 | 6.0 | 0.00 | 0.00 | 0.00 | 80 | 1011.2 |
| 20260507020540 | 53 | 0 | 0.0 | 4.0 | 0.00 | 0.00 | 0.00 | 80 | 1011.2 |
| 20260507020059 | 53 | 0 | 0.0 | 2.0 | 0.00 | 0.00 | 0.00 | 80 | 1011.1 |
| 20260507015539 | 53 | 263 | 0.0 | 5.0 | 0.00 | 0.00 | 0.00 | 80 | 1011.1 |
| 20260507015040 | 53 | 0 | 0.0 | 5.0 | 0.00 | 0.00 | 0.00 | 80 | 1011.1 |
| 20260507014546 | 54 | 0 | 0.0 | 5.0 | 0.00 | 0.00 | 0.00 | 80 | 1011.1 |
| 20260507014040 | 54 | 0 | 0.0 | 3.0 | 0.00 | 0.00 | 0.00 | 80 | 1011.0 |
| 20260507013541 | 54 | 0 | 0.0 | 3.0 | 0.00 | 0.00 | 0.00 | 79 | 1011.0 |
| 20260507013047 | 54 | 312 | 0.0 | 3.0 | 0.00 | 0.00 | 0.00 | 80 | 1011.0 |
| 20260507012546 | 54 | 0 | 0.0 | 0.0 | 0.00 | 0.00 | 0.00 | 80 | 1011.0 |
| 20260507012040 | 54 | 0 | 0.0 | 1.0 | 0.00 | 0.00 | 0.00 | 80 | 1011.0 |
| 20260507011548 | 54 | 0 | 0.0 | 2.0 | 0.00 | 0.00 | 0.00 | 80 | 1011.0 |
| 20260507011039 | 54 | 0 | 0.0 | 6.0 | 0.00 | 0.00 | 0.00 | 80 | 1011.0 |
| 20260507010540 | 54 | 0 | 0.0 | 6.0 | 0.00 | 0.00 | 0.00 | 80 | 1011.0 |
| 20260507010051 | 54 | 144 | 2.0 | 6.0 | 0.00 | 0.00 | 0.00 | 80 | 1010.9 |
| 20260507005540 | 54 | 0 | 1.0 | 4.0 | 0.00 | 0.00 | 0.00 | 80 | 1010.9 |
| 20260507005041 | 54 | 257 | 0.0 | 4.0 | 0.00 | 0.00 | 0.00 | 80 | 1010.9 |
| 20260507004551 | 54 | 0 | 0.0 | 6.0 | 0.00 | 0.00 | 0.00 | 80 | 1010.9 |
| 20260507004039 | 54 | 251 | 1.0 | 6.0 | 0.00 | 0.00 | 0.00 | 80 | 1010.8 |
| 20260507003541 | 54 | 254 | 1.0 | 5.0 | 0.00 | 0.00 | 0.00 | 80 | 1010.7 |
| 20260507003106 | 54 | 213 | 1.0 | 5.0 | 0.00 | 0.00 | 0.00 | 80 | 1010.7 |
| 20260507002545 | 54 | 233 | 1.0 | 5.0 | 0.00 | 0.00 | 0.00 | 79 | 1010.7 |
| 20260507002042 | 54 | 307 | 1.0 | 5.0 | 0.00 | 0.00 | 0.00 | 79 | 1010.7 |
| 20260507001609 | 55 | 0 | 0.0 | 5.0 | 0.00 | 0.00 | 0.00 | 79 | 1010.6 |
| 20260507001041 | 55 | 293 | 1.0 | 7.0 | 0.00 | 0.00 | 0.00 | 79 | 1010.7 |
| 20260507000543 | 55 | 291 | 1.0 | 7.0 | 0.00 | 0.00 | 0.00 | 80 | 1010.8 |
| 20260507000047 | 55 | 232 | 1.0 | 8.0 | 0.00 | 0.00 | 0.00 | 80 | 1010.8 |
| 20260506235540 | 55 | 0 | 2.0 | 8.0 | 0.00 | 0.00 | 0.00 | 79 | 1010.8 |
| 20260506235039 | 55 | 0 | 0.0 | 4.0 | 0.00 | 0.00 | 0.00 | 79 | 1010.8 |
| 20260506234551 | 55 | 286 | 1.0 | 6.0 | 0.00 | 0.00 | 0.00 | 79 | 1010.8 |
| 20260506234040 | 55 | 331 | 2.0 | 6.0 | 0.00 | 0.00 | 0.00 | 79 | 1010.8 |
| 20260506233540 | 55 | 0 | 0.0 | 3.0 | 0.00 | 0.00 | 0.00 | 79 | 1010.7 |
| 20260506233052 | 55 | 240 | 0.0 | 6.0 | 0.00 | 0.00 | 0.00 | 79 | 1010.7 |
| 20260506232539 | 55 | 202 | 0.0 | 6.0 | 0.00 | 0.00 | 0.00 | 79 | 1010.7 |
| 20260506232040 | 55 | 157 | 1.0 | 6.0 | 0.00 | 0.00 | 0.00 | 79 | 1010.7 |
| 20260506231554 | 55 | 0 | 1.0 | 6.0 | 0.00 | 0.00 | 0.00 | 79 | 1010.6 |
| 20260506231040 | 55 | 280 | 1.0 | 5.0 | 0.00 | 0.00 | 0.00 | 79 | 1010.7 |
| 20260506230540 | 55 | 269 | 0.0 | 10.0 | 0.00 | 0.00 | 0.00 | 79 | 1010.7 |
| 20260506230107 | 55 | 219 | 0.0 | 10.0 | 0.00 | 0.00 | 0.00 | 79 | 1010.6 |
| 20260506225557 | 55 | 264 | 2.0 | 13.0 | 0.00 | 0.00 | 0.00 | 79 | 1010.6 |
| 20260506225040 | 55 | 221 | 2.0 | 13.0 | 0.00 | 0.00 | 0.00 | 78 | 1010.3 |
| 20260506224548 | 56 | 288 | 3.0 | 10.0 | 0.00 | 0.00 | 0.00 | 78 | 1010.2 |
| 20260506224039 | 56 | 207 | 3.0 | 9.0 | 0.00 | 0.00 | 0.00 | 78 | 1010.1 |
| 20260506223541 | 56 | 188 | 2.0 | 9.0 | 0.00 | 0.00 | 0.00 | 79 | 1009.8 |
| 20260506223049 | 56 | 277 | 2.0 | 9.0 | 0.00 | 0.00 | 0.00 | 79 | 1009.8 |
| 20260506222540 | 56 | 198 | 3.0 | 10.0 | 0.00 | 0.00 | 0.00 | 79 | 1009.9 |
| 20260506222040 | 56 | 210 | 2.0 | 10.0 | 0.00 | 0.00 | 0.00 | 79 | 1009.7 |
| 20260506221603 | 56 | 235 | 1.0 | 9.0 | 0.00 | 0.00 | 0.00 | 80 | 1009.7 |
| 20260506221039 | 56 | 203 | 1.0 | 9.0 | 0.00 | 0.00 | 0.00 | 81 | 1009.6 |
| 20260506220539 | 56 | 201 | 2.0 | 8.0 | 0.00 | 0.00 | 0.00 | 81 | 1009.5 |
| 20260506220055 | 57 | 0 | 0.0 | 7.0 | 0.00 | 0.00 | 0.00 | 81 | 1009.4 |
| 20260506215542 | 57 | 351 | 1.0 | 8.0 | 0.00 | 0.00 | 0.00 | 80 | 1009.3 |
| 20260506215040 | 57 | 279 | 1.0 | 9.0 | 0.00 | 0.00 | 0.00 | 80 | 1009.3 |
| 20260506214555 | 57 | 250 | 2.0 | 9.0 | 0.00 | 0.00 | 0.00 | 81 | 1009.2 |
| 20260506214040 | 57 | 145 | 1.0 | 7.0 | 0.00 | 0.00 | 0.00 | 81 | 1009.2 |
| 20260506213540 | 57 | 0 | 1.0 | 9.0 | 0.00 | 0.00 | 0.00 | 81 | 1009.2 |